MADRS57 EGVN-EGVN

Flight info

Callsign MADRS57
Flight time N/A
Altitude 26000
Route BZN TR1 LND AARA11 LND TR1 BZN
Aircraft A332/M-SDFGRWY/LB1

Departure

Time 2026-05-08 15:40
Airport RAF Brize Norton (EGVN)

Arrival

Time N/A
Airport RAF Brize Norton (EGVN)
Time Latitude Longitude Altitude Speed Heading
2026-05-08 15:27 51.75863 -1.57384 270 ft 0 kts 77°
2026-05-08 15:33 51.75863 -1.57382 270 ft 1 kts 77°
2026-05-08 15:34 51.75866 -1.57366 297 ft 4 kts 77°
2026-05-08 15:34 51.75889 -1.57298 270 ft 6 kts 40°
2026-05-08 15:34 51.75910 -1.57298 270 ft 3 kts 352°
2026-05-08 15:34 51.75924 -1.57360 270 ft 8 kts 284°
2026-05-08 15:35 51.75928 -1.57466 270 ft 9 kts 258°
2026-05-08 15:35 51.75904 -1.57506 271 ft 6 kts 212°
2026-05-08 15:35 51.75823 -1.57543 270 ft 20 kts 198°
2026-05-08 15:35 51.75676 -1.57626 270 ft 23 kts 199°
2026-05-08 15:36 51.75523 -1.57722 270 ft 19 kts 204°
2026-05-08 15:36 51.75407 -1.57829 270 ft 20 kts 209°
2026-05-08 15:36 51.75281 -1.57940 270 ft 21 kts 208°
2026-05-08 15:36 51.75147 -1.58056 271 ft 22 kts 207°
2026-05-08 15:37 51.75009 -1.58175 270 ft 22 kts 211°
2026-05-08 15:37 51.74871 -1.58296 270 ft 23 kts 207°
2026-05-08 15:37 51.74724 -1.58415 270 ft 24 kts 207°
2026-05-08 15:37 51.74649 -1.58549 270 ft 16 kts 249°
2026-05-08 15:38 51.74620 -1.58738 270 ft 18 kts 254°
2026-05-08 15:38 51.74582 -1.58949 270 ft 21 kts 253°
2026-05-08 15:38 51.74535 -1.59178 270 ft 22 kts 251°
2026-05-08 15:38 51.74481 -1.59424 270 ft 24 kts 250°
2026-05-08 15:39 51.74432 -1.59692 270 ft 23 kts 255°
2026-05-08 15:39 51.74450 -1.59892 270 ft 19 kts 300°
2026-05-08 15:39 51.74535 -1.60055 270 ft 20 kts 332°
2026-05-08 15:39 51.74659 -1.60048 269 ft 18 kts 42°
2026-05-08 15:40 51.74727 -1.59765 268 ft 60 kts 74°
2026-05-08 15:40 51.74947 -1.58580 275 ft 155 kts 73°
2026-05-08 15:40 51.75302 -1.56742 976 ft 177 kts 74°
2026-05-08 15:40 51.75679 -1.54821 2133 ft 181 kts 74°
2026-05-08 15:41 51.76060 -1.52904 3171 ft 181 kts 76°
2026-05-08 15:41 51.76583 -1.51018 4001 ft 193 kts 49°
2026-05-08 15:41 51.77801 -1.50107 4825 ft 201 kts
2026-05-08 15:41 51.79074 -1.50862 5665 ft 198 kts 313°
2026-05-08 15:42 51.79608 -1.52806 6496 ft 192 kts 267°
2026-05-08 15:42 51.79362 -1.54989 7075 ft 207 kts 250°
2026-05-08 15:42 51.78853 -1.57289 7560 ft 229 kts 247°
2026-05-08 15:42 51.78238 -1.59789 8059 ft 248 kts 246°
2026-05-08 15:43 51.77561 -1.62483 8485 ft 269 kts 246°
2026-05-08 15:43 51.76851 -1.65311 9295 ft 273 kts 246°
2026-05-08 15:43 51.76226 -1.68228 10158 ft 277 kts 255°
2026-05-08 15:43 51.75554 -1.71203 10643 ft 294 kts 237°
2026-05-08 15:44 51.74128 -1.73709 10947 ft 316 kts 219°
2026-05-08 15:44 51.72291 -1.75829 11512 ft 327 kts 214°
2026-05-08 15:44 51.70389 -1.77883 12317 ft 332 kts 214°
2026-05-08 15:44 51.68487 -1.80035 13127 ft 336 kts 216°
2026-05-08 15:45 51.66600 -1.82287 13943 ft 340 kts 217°
2026-05-08 15:45 51.64707 -1.84623 14698 ft 344 kts 217°
2026-05-08 15:45 51.62813 -1.86998 15457 ft 348 kts 218°
2026-05-08 15:45 51.60899 -1.89407 16222 ft 351 kts 217°
2026-05-08 15:46 51.58966 -1.91836 16996 ft 354 kts 217°
2026-05-08 15:46 51.57009 -1.94291 17760 ft 358 kts 217°
2026-05-08 15:46 51.55061 -1.96729 18485 ft 362 kts 217°
2026-05-08 15:46 51.53036 -1.99261 19160 ft 366 kts 217°
2026-05-08 15:47 51.51014 -2.01783 19829 ft 370 kts 217°
2026-05-08 15:47 51.49003 -2.04289 20496 ft 373 kts 218°
2026-05-08 15:47 51.46943 -2.06851 21187 ft 377 kts 218°
2026-05-08 15:47 51.44853 -2.09448 21879 ft 381 kts 218°
2026-05-08 15:48 51.40613 -2.14708 23303 ft 390 kts 218°
2026-05-08 15:48 51.38457 -2.17378 23951 ft 394 kts 218°
2026-05-08 15:48 51.36284 -2.20064 24595 ft 396 kts 218°
2026-05-08 15:49 51.34093 -2.22770 24931 ft 398 kts 219°
2026-05-08 15:49 51.31897 -2.25478 25032 ft 399 kts 219°
2026-05-08 15:49 51.29698 -2.28188 25048 ft 399 kts 218°
2026-05-08 15:49 51.27501 -2.30893 25047 ft 399 kts 218°
2026-05-08 15:50 51.25294 -2.33608 25043 ft 399 kts 218°
2026-05-08 15:50 51.23091 -2.36313 25043 ft 404 kts 218°
2026-05-08 15:50 51.20833 -2.39083 25042 ft 412 kts 218°
2026-05-08 15:50 51.18567 -2.41861 25049 ft 408 kts 218°
2026-05-08 15:51 51.16312 -2.44618 25048 ft 408 kts 218°
2026-05-08 15:51 51.14084 -2.47339 25048 ft 409 kts 218°
2026-05-08 15:51 51.11826 -2.50094 25048 ft 409 kts 218°
2026-05-08 15:51 51.09536 -2.52885 25048 ft 409 kts 218°
2026-05-08 15:52 51.07278 -2.55632 25048 ft 409 kts 218°
2026-05-08 15:52 51.05013 -2.58385 25048 ft 409 kts 218°
2026-05-08 15:52 51.02829 -2.61177 25047 ft 408 kts 223°
2026-05-08 15:52 51.00906 -2.64487 25047 ft 408 kts 232°
2026-05-08 15:53 50.99352 -2.68249 25047 ft 408 kts 241°
2026-05-08 15:53 50.98166 -2.72339 25049 ft 408 kts 246°
2026-05-08 15:53 50.97051 -2.76483 25048 ft 408 kts 246°
2026-05-08 15:53 50.95928 -2.80621 25046 ft 408 kts 246°
2026-05-08 15:54 50.94802 -2.84743 25035 ft 408 kts 246°
2026-05-08 15:54 50.93674 -2.88862 25027 ft 407 kts 245°
2026-05-08 15:54 50.92541 -2.92984 25029 ft 407 kts 245°
2026-05-08 15:54 50.91408 -2.97094 25028 ft 408 kts 245°
2026-05-08 15:55 50.90273 -3.01207 25034 ft 407 kts 245°
2026-05-08 15:55 50.87997 -3.09433 25038 ft 407 kts 245°
2026-05-08 15:55 50.86856 -3.13545 25040 ft 408 kts 245°
2026-05-08 15:56 50.85715 -3.17650 25042 ft 408 kts 245°
2026-05-08 15:56 50.84571 -3.21759 25044 ft 408 kts 245°
2026-05-08 15:56 50.83430 -3.25853 25045 ft 408 kts 245°
2026-05-08 15:56 50.82283 -3.29960 25051 ft 408 kts 245°
2026-05-08 15:57 50.81136 -3.34062 25047 ft 408 kts 245°
2026-05-08 15:57 50.79988 -3.38159 25048 ft 408 kts 245°
2026-05-08 15:57 50.78835 -3.42261 25048 ft 408 kts 245°
2026-05-08 15:57 50.77685 -3.46351 25048 ft 408 kts 245°
2026-05-08 15:58 50.76531 -3.50444 25047 ft 408 kts 245°
2026-05-08 15:58 50.75376 -3.54537 25048 ft 408 kts 245°
2026-05-08 15:58 50.74222 -3.58616 25046 ft 407 kts 245°
2026-05-08 15:58 50.73078 -3.62656 25047 ft 408 kts 245°
2026-05-08 15:59 50.71908 -3.66782 25042 ft 408 kts 245°
2026-05-08 15:59 50.70746 -3.70870 25042 ft 408 kts 245°
2026-05-08 15:59 50.69601 -3.74892 25052 ft 408 kts 245°
2026-05-08 15:59 50.68441 -3.78959 25031 ft 406 kts 244°
2026-05-08 16:00 50.67281 -3.83021 25032 ft 406 kts 244°
2026-05-08 16:00 50.66121 -3.87072 25034 ft 406 kts 244°
2026-05-08 16:00 50.64955 -3.91140 25036 ft 411 kts 244°
2026-05-08 16:00 50.63746 -3.95342 25035 ft 431 kts 244°
2026-05-08 16:01 50.62488 -3.99712 25032 ft 440 kts 244°
2026-05-08 16:01 50.61225 -4.04097 25031 ft 439 kts 244°
2026-05-08 16:01 50.59961 -4.08479 25031 ft 439 kts 244°
2026-05-08 16:01 50.58697 -4.12850 25029 ft 439 kts 244°
2026-05-08 16:02 50.57428 -4.17230 25029 ft 439 kts 244°
2026-05-08 16:02 50.56155 -4.21614 25029 ft 440 kts 244°
2026-05-08 16:02 50.54885 -4.25981 25029 ft 440 kts 244°
2026-05-08 16:02 50.53611 -4.30354 25028 ft 439 kts 244°
2026-05-08 16:03 50.52336 -4.34721 25029 ft 440 kts 244°
2026-05-08 16:03 50.51061 -4.39080 25029 ft 440 kts 244°
2026-05-08 16:03 50.49783 -4.43441 25029 ft 439 kts 244°
2026-05-08 16:03 50.48503 -4.47802 25028 ft 440 kts 244°
2026-05-08 16:04 50.47223 -4.52154 25029 ft 440 kts 244°
2026-05-08 16:04 50.45939 -4.56514 25029 ft 439 kts 244°
2026-05-08 16:04 50.44654 -4.60867 25029 ft 439 kts 244°
2026-05-08 16:04 50.43369 -4.65215 25037 ft 440 kts 244°
2026-05-08 16:05 50.42084 -4.69558 25029 ft 440 kts 243°
2026-05-08 16:05 50.40794 -4.73906 25028 ft 440 kts 243°
2026-05-08 16:05 50.39502 -4.78251 25027 ft 440 kts 243°
2026-05-08 16:05 50.38211 -4.82588 25026 ft 440 kts 243°
2026-05-08 16:06 50.36914 -4.86934 25019 ft 440 kts 243°
2026-05-08 16:06 50.35619 -4.91267 25026 ft 440 kts 243°
2026-05-08 16:06 50.34319 -4.95608 25020 ft 440 kts 243°
2026-05-08 16:06 50.33019 -4.99942 25018 ft 440 kts 243°
2026-05-08 16:07 50.32158 -5.02808 25026 ft 440 kts 243°
2026-05-08 16:07 50.30858 -5.07131 25014 ft 440 kts 243°
2026-05-08 16:07 50.29547 -5.11479 25022 ft 443 kts 243°
2026-05-08 16:07 50.28232 -5.15834 25022 ft 443 kts 243°
2026-05-08 16:08 50.26918 -5.20181 25022 ft 442 kts 243°
2026-05-08 16:08 50.25601 -5.24528 25022 ft 442 kts 243°
2026-05-08 16:08 50.24283 -5.28869 25022 ft 442 kts 243°
2026-05-08 16:08 50.22963 -5.33212 25022 ft 442 kts 243°
2026-05-08 16:09 50.21641 -5.37550 25022 ft 442 kts 243°
2026-05-08 16:09 50.20318 -5.41887 25020 ft 442 kts 243°
2026-05-08 16:09 50.18993 -5.46221 25020 ft 443 kts 243°
2026-05-08 16:09 50.17667 -5.50549 25028 ft 443 kts 243°
2026-05-08 16:10 50.16421 -5.54939 25019 ft 443 kts 249°
2026-05-08 16:10 50.15723 -5.59632 25025 ft 448 kts 261°
2026-05-08 16:10 50.15688 -5.64507 25017 ft 453 kts 272°
2026-05-08 16:10 50.16326 -5.69332 25020 ft 458 kts 285°
2026-05-08 16:11 50.17619 -5.73898 25023 ft 463 kts 297°
2026-05-08 16:11 50.19516 -5.77993 25021 ft 469 kts 309°
2026-05-08 16:11 50.21842 -5.81578 25025 ft 471 kts 314°
2026-05-08 16:11 50.24207 -5.85114 25020 ft 470 kts 312°
2026-05-08 16:12 50.26459 -5.88795 25024 ft 469 kts 309°
2026-05-08 16:12 50.28601 -5.92633 25025 ft 466 kts 305°
2026-05-08 16:12 50.30343 -5.96853 25024 ft 460 kts 293°
2026-05-08 16:12 50.31491 -6.01478 25039 ft 455 kts 282°
2026-05-08 16:13 50.32047 -6.06323 25028 ft 451 kts 271°
2026-05-08 16:13 50.32020 -6.11202 25026 ft 446 kts 261°
2026-05-08 16:13 50.31461 -6.15884 25028 ft 430 kts 254°
2026-05-08 16:13 50.30781 -6.20347 25025 ft 413 kts 253°
2026-05-08 16:14 50.30117 -6.24630 25025 ft 397 kts 253°
2026-05-08 16:14 50.29463 -6.28738 25025 ft 382 kts 253°
2026-05-08 16:14 50.28815 -6.32735 25027 ft 381 kts 252°
2026-05-08 16:14 50.28154 -6.36776 25026 ft 385 kts 252°
2026-05-08 16:15 50.27494 -6.40828 25026 ft 384 kts 252°
2026-05-08 16:15 50.26847 -6.44816 25038 ft 383 kts 253°
2026-05-08 16:15 50.26187 -6.48904 25027 ft 383 kts 252°
2026-05-08 16:15 50.25536 -6.52946 25026 ft 383 kts 252°
2026-05-08 16:16 50.24886 -6.56988 25024 ft 384 kts 252°
2026-05-08 16:16 50.24239 -6.61028 25027 ft 384 kts 252°
2026-05-08 16:16 50.23592 -6.65072 25021 ft 384 kts 252°
2026-05-08 16:16 50.22948 -6.69108 25020 ft 384 kts 252°
2026-05-08 16:17 50.22304 -6.73155 25020 ft 385 kts 253°
2026-05-08 16:17 50.21658 -6.77224 25021 ft 386 kts 253°
2026-05-08 16:17 50.21014 -6.81291 25021 ft 386 kts 253°
2026-05-08 16:17 50.20373 -6.85350 25020 ft 385 kts 253°
2026-05-08 16:18 50.19732 -6.89411 25028 ft 386 kts 253°
2026-05-08 16:18 50.19093 -6.93471 25021 ft 384 kts 253°
2026-05-08 16:18 50.18459 -6.97513 25020 ft 383 kts 253°
2026-05-08 16:18 50.17825 -7.01555 25021 ft 384 kts 253°
2026-05-08 16:19 50.17192 -7.05604 25021 ft 384 kts 253°
2026-05-08 16:19 50.16561 -7.09647 25020 ft 384 kts 253°
2026-05-08 16:19 50.15932 -7.13694 25020 ft 384 kts 253°
2026-05-08 16:19 50.15302 -7.17747 25021 ft 384 kts 253°
2026-05-08 16:20 50.14677 -7.21785 25021 ft 384 kts 253°
2026-05-08 16:20 50.14050 -7.25837 25021 ft 384 kts 253°
2026-05-08 16:20 50.13426 -7.29886 25021 ft 384 kts 253°
2026-05-08 16:20 50.12803 -7.33934 25040 ft 384 kts 253°
2026-05-08 16:21 50.12182 -7.37981 25024 ft 385 kts 253°
2026-05-08 16:21 50.11569 -7.41984 25018 ft 385 kts 253°
2026-05-08 16:21 50.10941 -7.46093 25025 ft 385 kts 253°
2026-05-08 16:21 50.10330 -7.50094 25020 ft 385 kts 253°
2026-05-08 16:22 50.09713 -7.54150 25024 ft 385 kts 253°
2026-05-08 16:22 50.09099 -7.58196 25024 ft 385 kts 253°
2026-05-08 16:22 50.08483 -7.62261 25017 ft 385 kts 253°
2026-05-08 16:22 50.07871 -7.66314 25024 ft 385 kts 253°
2026-05-08 16:23 50.07259 -7.70369 25011 ft 385 kts 253°
2026-05-08 16:23 50.06650 -7.74420 25018 ft 385 kts 253°
2026-05-08 16:23 50.06042 -7.78470 25029 ft 385 kts 253°
2026-05-08 16:23 50.05439 -7.82514 25016 ft 381 kts 253°
2026-05-08 16:24 50.04841 -7.86523 25013 ft 381 kts 253°
2026-05-08 16:24 50.04171 -7.90497 25012 ft 378 kts 245°
2026-05-08 16:24 50.02918 -7.94045 25009 ft 372 kts 230°
2026-05-08 16:24 50.01075 -7.96819 25011 ft 369 kts 214°
2026-05-08 16:25 49.98794 -7.98600 25011 ft 368 kts 198°
2026-05-08 16:25 49.96268 -7.99238 25011 ft 371 kts 182°
2026-05-08 16:25 49.93711 -7.98673 25010 ft 376 kts 166°
2026-05-08 16:25 49.91331 -7.96934 24998 ft 383 kts 149°
2026-05-08 16:26 49.89342 -7.94159 25005 ft 391 kts 134°
2026-05-08 16:26 49.87905 -7.90534 25001 ft 400 kts 117°
2026-05-08 16:26 49.87154 -7.86310 25001 ft 409 kts 101°
2026-05-08 16:26 49.87174 -7.81869 25002 ft 418 kts 85°
2026-05-08 16:27 49.87973 -7.77508 25000 ft 426 kts 69°
2026-05-08 16:27 49.89509 -7.73552 25008 ft 432 kts 53°
2026-05-08 16:27 49.91663 -7.70317 25016 ft 430 kts 38°
2026-05-08 16:27 49.94116 -7.67675 25024 ft 430 kts 33°
2026-05-08 16:28 49.96652 -7.65167 25008 ft 435 kts 32°
2026-05-08 16:28 49.99218 -7.62676 25013 ft 435 kts 32°
2026-05-08 16:28 50.01731 -7.60091 25013 ft 433 kts 39°
2026-05-08 16:28 50.03843 -7.56786 25022 ft 430 kts 55°
2026-05-08 16:29 50.05345 -7.52800 25020 ft 426 kts 69°
2026-05-08 16:29 50.06341 -7.48477 25015 ft 423 kts 77°
2026-05-08 16:30 50.08294 -7.34746 25014 ft 421 kts 82°
2026-05-08 16:30 50.08873 -7.30283 25016 ft 421 kts 82°
2026-05-08 16:30 50.09463 -7.25805 25017 ft 422 kts 81°
2026-05-08 16:30 50.10063 -7.21332 25018 ft 422 kts 81°
2026-05-08 16:31 50.10668 -7.16859 25015 ft 422 kts 81°
2026-05-08 16:31 50.11277 -7.12390 25020 ft 422 kts 81°
2026-05-08 16:31 50.11887 -7.07925 25022 ft 422 kts 81°
2026-05-08 16:31 50.12508 -7.03393 25021 ft 422 kts 81°
2026-05-08 16:32 50.13122 -6.98920 25021 ft 422 kts 81°
2026-05-08 16:32 50.13738 -6.94449 25020 ft 422 kts 81°
2026-05-08 16:32 50.14358 -6.89954 25020 ft 422 kts 81°
2026-05-08 16:32 50.14978 -6.85483 25019 ft 421 kts 81°
2026-05-08 16:33 50.15595 -6.81044 25020 ft 419 kts 81°
2026-05-08 16:33 50.16213 -6.76597 25020 ft 420 kts 81°
2026-05-08 16:33 50.16833 -6.72153 25020 ft 420 kts 81°
2026-05-08 16:33 50.17457 -6.67696 25021 ft 420 kts 81°
2026-05-08 16:34 50.18082 -6.63247 25021 ft 420 kts 81°
2026-05-08 16:34 50.18497 -6.60295 25022 ft 420 kts 81°
2026-05-08 16:34 50.19124 -6.55850 25021 ft 420 kts 81°
2026-05-08 16:34 50.19753 -6.51404 25020 ft 420 kts 81°
2026-05-08 16:35 50.20383 -6.46956 25020 ft 420 kts 81°
2026-05-08 16:35 50.21017 -6.42500 25003 ft 420 kts 81°
2026-05-08 16:35 50.21650 -6.38051 25016 ft 420 kts 81°
2026-05-08 16:35 50.22286 -6.33597 25020 ft 420 kts 81°
2026-05-08 16:36 50.22924 -6.29149 25024 ft 420 kts 80°
2026-05-08 16:36 50.23565 -6.24690 25020 ft 420 kts 80°
2026-05-08 16:36 50.24206 -6.20240 25022 ft 420 kts 80°
2026-05-08 16:36 50.24849 -6.15790 25019 ft 420 kts 80°
2026-05-08 16:37 50.25493 -6.11346 25018 ft 420 kts 80°
2026-05-08 16:37 50.26141 -6.06883 25020 ft 420 kts 80°
2026-05-08 16:37 50.26790 -6.02424 25029 ft 422 kts 80°
2026-05-08 16:37 50.27443 -5.97952 25012 ft 423 kts 80°
2026-05-08 16:38 50.28099 -5.93465 25021 ft 423 kts 80°
2026-05-08 16:38 50.28593 -5.88964 25022 ft 419 kts 90°
2026-05-08 16:38 50.28382 -5.84460 25021 ft 413 kts 106°
2026-05-08 16:38 50.27471 -5.80271 25010 ft 405 kts 120°
2026-05-08 16:39 50.25953 -5.76621 25021 ft 397 kts 134°
2026-05-08 16:39 50.23953 -5.73707 25018 ft 391 kts 148°
2026-05-08 16:39 50.21598 -5.71649 25020 ft 387 kts 161°
2026-05-08 16:39 50.19029 -5.70527 25025 ft 383 kts 174°
2026-05-08 16:40 50.16398 -5.70372 25023 ft 380 kts 186°
2026-05-08 16:40 50.13816 -5.71169 25023 ft 378 kts 199°
2026-05-08 16:40 50.11428 -5.72868 25019 ft 378 kts 211°
2026-05-08 16:40 50.09351 -5.75380 25022 ft 379 kts 224°
2026-05-08 16:41 50.07698 -5.78581 25020 ft 382 kts 236°
2026-05-08 16:41 50.06556 -5.82322 25021 ft 385 kts 249°
2026-05-08 16:41 50.05948 -5.86392 25017 ft 388 kts 260°
2026-05-08 16:42 50.05545 -5.94809 25029 ft 389 kts 261°
2026-05-08 16:42 50.05161 -5.98965 25017 ft 387 kts 257°
2026-05-08 16:42 50.04628 -6.03068 25018 ft 386 kts 254°
2026-05-08 16:42 50.04013 -6.07125 25018 ft 386 kts 253°
2026-05-08 16:43 50.03361 -6.11179 25010 ft 386 kts 253°
2026-05-08 16:43 50.02698 -6.15234 25015 ft 389 kts 252°
2026-05-08 16:43 50.02032 -6.19313 25014 ft 389 kts 253°
2026-05-08 16:43 50.01382 -6.23323 25015 ft 388 kts 253°
2026-05-08 16:44 50.00725 -6.27398 25013 ft 388 kts 253°
2026-05-08 16:44 50.00069 -6.31472 25015 ft 388 kts 253°
2026-05-08 16:44 49.99415 -6.35537 25013 ft 388 kts 253°
2026-05-08 16:44 49.98763 -6.39611 25027 ft 388 kts 253°
2026-05-08 16:45 49.98112 -6.43691 25018 ft 389 kts 253°
2026-05-08 16:45 49.97463 -6.47770 25015 ft 389 kts 253°
2026-05-08 16:45 49.96815 -6.51855 25015 ft 389 kts 253°
2026-05-08 16:45 49.96169 -6.55933 25010 ft 389 kts 253°
2026-05-08 16:46 49.95525 -6.60012 25007 ft 389 kts 253°
2026-05-08 16:46 49.94903 -6.64104 25005 ft 390 kts 257°
2026-05-08 16:46 49.94805 -6.68337 25008 ft 398 kts 273°
2026-05-08 16:46 49.95505 -6.72522 25015 ft 406 kts 289°
2026-05-08 16:47 49.96964 -6.76306 25014 ft 413 kts 306°
2026-05-08 16:47 49.99083 -6.79373 25014 ft 420 kts 322°
2026-05-08 16:47 50.01692 -6.81451 25014 ft 425 kts 339°
2026-05-08 16:47 50.04594 -6.82361 25015 ft 429 kts 355°
2026-05-08 16:48 50.07568 -6.82021 25016 ft 432 kts 12°
2026-05-08 16:48 50.10404 -6.80437 25017 ft 433 kts 28°
2026-05-08 16:48 50.12848 -6.77747 25016 ft 431 kts 45°
2026-05-08 16:48 50.14729 -6.74154 25021 ft 427 kts 62°
2026-05-08 16:49 50.15917 -6.69961 25024 ft 422 kts 75°
2026-05-08 16:49 50.16804 -6.65590 25021 ft 422 kts 76°
2026-05-08 16:49 50.17684 -6.61220 25020 ft 422 kts 76°
2026-05-08 16:49 50.18563 -6.56857 25020 ft 422 kts 76°
2026-05-08 16:50 50.19442 -6.52486 25021 ft 422 kts 76°
2026-05-08 16:50 50.20318 -6.48123 25021 ft 422 kts 76°
2026-05-08 16:50 50.21195 -6.43751 25021 ft 422 kts 76°
2026-05-08 16:50 50.22064 -6.39375 25023 ft 422 kts 76°
2026-05-08 16:51 50.22922 -6.34994 25026 ft 422 kts 76°
2026-05-08 16:51 50.23784 -6.30616 25022 ft 422 kts 76°
2026-05-08 16:51 50.24647 -6.26233 25021 ft 422 kts 76°
2026-05-08 16:51 50.25508 -6.21852 25031 ft 422 kts 76°
2026-05-08 16:52 50.26371 -6.17449 25025 ft 424 kts 76°
2026-05-08 16:52 50.27233 -6.13044 25023 ft 424 kts 76°
2026-05-08 16:52 50.28092 -6.08644 25023 ft 424 kts 76°
2026-05-08 16:52 50.28952 -6.04237 25023 ft 424 kts 76°
2026-05-08 16:53 50.30675 -5.95412 25014 ft 427 kts 75°
2026-05-08 16:53 50.31558 -5.90969 25041 ft 433 kts 81°
2026-05-08 16:53 50.30968 -5.86737 26417 ft 385 kts 129°
2026-05-08 16:54 50.29086 -5.83811 27002 ft 388 kts 144°
2026-05-08 16:54 50.26968 -5.81011 26982 ft 412 kts 139°
2026-05-08 16:54 50.24826 -5.77880 26973 ft 433 kts 143°
2026-05-08 16:54 50.22435 -5.74829 26941 ft 454 kts 144°
2026-05-08 16:55 50.20131 -5.71364 26909 ft 463 kts 133°
2026-05-08 16:55 50.18313 -5.67202 26858 ft 464 kts 121°
2026-05-08 16:55 50.17090 -5.62580 26764 ft 460 kts 109°